Location: ?astrovice
(49.6513°N, 14.9287°E)
Time: 17:18:00
(UTC+00:00)

Cosmos 1356 Rocket - Visible Passes

Search period start: 06 August 2020 00:00
Search period end: 16 August 2020 00:00
Orbit: 542 x 599 km, 81.2° (Epoch: 05 August)

Date Brightness Start Highest point End Pass type
(mag) Time Alt. Az. Time Alt. Az. Time Alt. Az.
08 Aug 6.4 01:58:13 10° ESE 01:59:43 12° E 02:01:12 10° ENE visible
09 Aug 6.2 01:59:22 10° ESE 02:01:44 15° E 02:04:05 10° NE visible
10 Aug 6.0 02:00:52 10° SE 02:03:47 19° E 02:06:41 10° NE visible
11 Aug 5.6 02:02:32 10° SE 02:05:50 23° E 02:09:08 10° NE visible
12 Aug 5.2 02:04:18 10° SSE 02:07:55 29° E 02:11:29 10° NNE visible
13 Aug 4.8 02:06:11 10° SSE 02:10:00 37° E 02:13:48 10° NNE visible
14 Aug 4.3 02:08:07 10° S 02:12:07 47° E 02:16:04 10° NNE visible
15 Aug 3.8 02:10:31 12° S 02:14:14 61° E 02:18:17 10° NNE visible
